Regional Weather Roundup
Issued by NWS State College, PA

Home | Current Version | Previous Version | Graphics & Text | Print | Product List | Glossary On
Versions: 1 2 3 4 5 6 7 8 9 10 11 12 13 14 15 16 17 18 19 20 21 22 23 24 25 26 27 28 29 30 31 32 33 34 35 36 37 38 39 40 41 42 43 44 45 46 47 48 49 50
550
ASUS41 KCTP 231410
RWRCTP

REGIONAL WEATHER ROUNDUP
NATIONAL WEATHER SERVICE STATE COLLEGE PA
1000 AM EDT SAT JUL 23 2016

Note: "fair" indicates few or no clouds below 12,000 feet with no
significant weather and/or obstructions to visibility.

* = STATION THAT DOES NOT REPORT PRECIPITATION /E.G. RAIN...SNOW...ETC/
    THUNDER OR FOG.

PAZ002>004-007>009-013>016-020>023-029>032-231500-
WESTERN PENNSYLVANIA

CITY           SKY/WX    TMP DP  RH WIND       PRES   REMARKS
ERIE           SUNNY     82  71  69 CALM      29.99R
MEADVILLE      SUNNY     78  69  73 NW5       30.02F
FRANKLIN*      PTSUNNY   79  70  73 W6        30.04F
NEW CASTLE     FAIR      82  72  71 W5        30.01F
BEAVER COUNTY  SUNNY     82  72  69 W5        30.03R
BUTLER*        SUNNY     81  73  78 W5        30.05S
PITTSBURGH INT MOSUNNY   80  70  71 NW3       30.02S
PITTSBURGH     SUNNY     80  70  71 SW5       30.02S
INDIANA*       CLOUDY    77  72  83 SW9       30.07R
LATROBE        PTSUNNY   75  73  94 SW12      30.04S
WASHINGTON CO* SUNNY     81  72  74 SW5       30.05R
$$

PAZ004>006-010>012-017>019-024>028-033>037-041-042-045-046-049>053-231500-
CENTRAL PENNSYLVANIA

CITY           SKY/WX    TMP DP  RH WIND       PRES   REMARKS
BRADFORD       SUNNY     78  64  61 NW7       30.04R
DUBOIS         CLOUDY    75  70  84 W9        30.03S
CLEARFIELD     CLOUDY    80  68  66 W9        30.02R
JOHNSTOWN      MOSUNNY   77  68  73 W12       30.07R
ALTOONA        SUNNY     84  69  60 NW10      30.02S
STATE COLLEGE  MOSUNNY   82  72  69 SW14      29.99S
WILLIAMSPORT   SUNNY     86  65  49 SW7       29.91S
SELINSGROVE    SUNNY     88  66  48 NW6       29.94S
FT INDIANTOWN  SUNNY     87  67  52 VRB6      29.93S
CAPITAL CITY   SUNNY     88  70  55 NW9       29.92F
HARRISBURG     MOSUNNY   87  73  62 NW12      29.92F
YORK           SUNNY     85  72  65 W7        29.94F
$$

PAZ038>040-043-044-047-048-054-055-060>062-067>071-231500-
EASTERN PENNSYLVANIA

CITY           SKY/WX    TMP DP  RH WIND       PRES   REMARKS
SCRANTON       SUNNY     86  60  41 W10       29.91F
MOUNT POCONO   SUNNY     77  32  19 NW12      29.97S
ALLENTOWN      SUNNY     86  69  56 W6        29.91S
QUAKERTOWN*    SUNNY     86  68  54 CALM      29.93S
READING        SUNNY     88  69  53 NW10      29.91S
LANCASTER      MOSUNNY   84  72  67 W9G16     29.93S
COATESVILLE    SUNNY     84  73  70 NW8       29.96S
POTTSTOWN      SUNNY     86  70  58 NW9       29.93S
BLUE BELL      MOSUNNY   84  72  65 NW7       29.90S
DOYLESTOWN     MOSUNNY   85  71  63 VRB6      29.90F
WILLOW GROVE   NOT AVBL
NORTH PHILA    SUNNY     89  71  55 W9        29.91F HX  95
PHILADELPHIA   MOSUNNY   88  70  55 NW13      29.90F
$$




USA.gov is the U.S. government's official web portal to all federal, state and local government web resources and services.